Location: Rancho Del Sol Observatory
(38.7214°N, 120.6350°W)
Time: 15:21:38
(UTC-08:00)

Courier 1B Rocket - All Passes

Search period start: 26 January 2020 00:00
Search period end: 05 February 2020 00:00
Orbit: 920 x 1202 km, 28.2° (Epoch: 26 January)

Date Brightness Start Highest point End Pass type
(mag) Time Alt. Az. Time Alt. Az. Time Alt. Az.
26 Jan - 08:55:09 10° S 08:57:34 12° SSE 08:59:55 10° SE daylight
26 Jan - 10:44:23 10° SW 10:50:18 26° SSE 10:55:54 10° ESE daylight
26 Jan - 12:36:51 10° WSW 12:43:11 34° S 12:49:08 10° ESE daylight
26 Jan - 14:30:19 10° WSW 14:35:59 28° SSW 14:41:22 10° SE daylight
26 Jan - 16:25:34 10° SW 16:28:27 13° SSW 16:31:17 10° S daylight
27 Jan - 09:43:53 10° SSW 09:49:21 22° SSE 09:54:37 10° ESE daylight
27 Jan - 11:35:47 10° SW 11:42:15 34° S 11:48:19 10° ESE daylight
27 Jan - 13:29:00 10° WSW 13:35:08 32° S 13:40:55 10° SE daylight
27 Jan - 15:23:20 10° WSW 15:27:45 18° SSW 15:32:00 10° SSE daylight
28 Jan - 08:43:46 10° SSW 08:48:25 17° SSE 08:52:57 10° ESE daylight
28 Jan - 10:34:50 10° SW 10:41:16 31° S 10:47:22 10° ESE daylight
28 Jan - 12:27:46 10° WSW 12:34:14 35° S 12:40:18 10° ESE daylight
28 Jan - 14:21:39 10° WSW 14:27:00 24° SSW 14:32:05 10° SSE daylight
29 Jan - 07:44:29 10° S 07:47:30 13° SSE 07:50:31 10° SE daylight
29 Jan - 09:34:03 10° SW 09:40:17 27° SSE 09:46:15 10° ESE daylight
29 Jan - 11:26:35 10° WSW 11:33:16 36° S 11:39:34 10° ESE daylight
29 Jan - 13:20:09 10° WSW 13:26:10 29° SSW 13:31:49 10° SE daylight
29 Jan - 15:15:26 10° SW 15:18:40 14° SSW 15:21:48 10° S daylight
30 Jan - 08:33:32 10° SSW 08:39:18 23° SSE 08:44:55 10° ESE daylight
30 Jan - 10:25:29 10° SW 10:32:16 35° S 10:38:41 10° ESE daylight
30 Jan - 12:18:46 10° WSW 12:25:16 33° S 12:31:21 10° SE daylight
30 Jan - 14:13:11 10° WSW 14:17:56 19° SSW 14:22:29 10° SSE daylight
31 Jan - 07:33:24 10° SSW 07:38:20 18° SSE 07:43:12 10° ESE daylight
31 Jan - 09:24:32 10° SW 09:31:14 32° S 09:37:40 10° ESE daylight
31 Jan - 11:17:29 10° WSW 11:24:16 36° S 11:30:41 10° ESE daylight
31 Jan - 13:11:25 10° WSW 13:17:08 25° SSW 13:22:32 10° SE daylight
01 Feb - 06:34:04 10° S 06:37:24 13° SSE 06:40:45 10° SE visible
01 Feb - 08:23:46 10° SW 08:30:12 28° SSE 08:36:28 10° ESE daylight
01 Feb - 10:16:18 10° WSW 10:23:14 37° S 10:29:52 10° ESE daylight
01 Feb - 12:09:53 10° WSW 12:16:14 30° SSW 12:22:14 10° SE daylight
01 Feb - 14:05:11 10° WSW 14:08:49 15° SSW 14:12:20 10° S daylight
02 Feb - 07:23:16 10° SSW 07:29:10 24° SSE 07:35:02 10° ESE daylight
02 Feb - 09:15:13 10° WSW 09:22:10 36° S 09:28:54 10° ESE daylight
02 Feb - 11:08:30 10° WSW 11:15:16 35° S 11:21:41 10° SE daylight
02 Feb - 13:02:55 10° WSW 13:08:01 20° SSW 13:12:55 10° SSE daylight
03 Feb - 06:23:12 10° SSW 06:28:12 19° SSE 06:33:14 10° ESE visible
03 Feb - 08:14:17 10° SW 08:21:06 33° S 08:27:48 10° ESE daylight
03 Feb - 10:07:13 10° WSW 10:14:13 37° S 10:20:56 10° ESE daylight
03 Feb - 12:01:09 10° WSW 12:07:09 26° SSW 12:12:54 10° SE daylight
04 Feb - 05:23:55 10° S 05:27:18 13° SSE 05:30:43 10° SE visible
04 Feb - 07:13:35 10° SW 07:20:03 29° SSE 07:26:30 10° ESE daylight
04 Feb - 09:06:03 10° WSW 09:13:08 38° S 09:20:02 10° ESE daylight
04 Feb - 10:59:36 10° WSW 11:06:12 31° SSW 11:12:31 10° SE daylight
04 Feb - 12:54:50 10° WSW 12:58:52 15° SSW 13:02:46 10° S daylight
